Showing default

MAROC TUBSAT, 27004

Orbit data source: Space-Track

MAROC TUBSAT, 27004 is a payload satellite owned by CRTS (DE) in SSO that was launched on Mon, 10 Dec 2001 UTC via a ZENIT-2 launch vehicle from the Tyuratam Missile And Space Complex (TTMTR). Payload-class satellites include a variety of spacecraft equipped with specific instruments for various scientific and technological missions. These include communications satellites like Starlink; space stations such as the ISS; scientific satellites like the Hubble; Earth observation satellites from companies like Planet Labs, Umbra, and HawkEye 360; GPS; miniature CubeSats for education and research; and military/defense satellites.

Loading next visibility...
Identifier
27004, 2001-056D
Orbit
SSO
Country
Flag of DEDE / GER
Related business
Manufacturer
TUB
Mission
Operational Civil Imaging
Bus & Motor
TUBSAT, Unknown motor
Mass
45 kg wet, 45 kg dry
Launch date (UTC)
2001-12-10 (25 years ago)
Launch vehicle
ZENIT-2
Launch site
Tyuratam Missile And Space Complex (TTMTR)
Object type
Payload
Rocket body
Debris
Shape & HBR
Box, 1.0 m
Radar Cross Section
0.200 m², Medium (>0.1 m² and < 1m²)

Expand to show TLE details & history
Last TLE update: 11 hours ago

TLE from 11 hours ago
0 MAROC TUBSAT
1 27004U 01056D   26163.27985347 -.00000012  00000-0  38825-4 0  9992
2 27004  99.8079 340.0470 0020181 153.5711  25.4240 13.70262285225518
Epoch: 2026-06-12T06:42Z
TLE epoch observation values (Epoch: 2026-06-12T06:42:59.339Z)
Latitude
0.78393°
Longitude
158.82301°
Altitude
987.898 km
Speed
7.365 km/s
True Right ascension
10h 40m 43s
True Declination
0° 46' 46"
Sunlit
Object was in daylight at epoch
Visualization orbit readout
Latitude
Unknown
Longitude
Unknown
Altitude
Unknown
Speed
Unknown
Apparent Right ascension
Unknown
Apparent Declination
Unknown
Sunlit
N/A
Visualization observer readout
Local Sidereal Time
04:19:05
Azimuth
Unknown
Elevation
Unknown
Doppler factor
Unknown
Orbital elements
Apogee altitude
1,010.791 km
Perigee altitude
981.028 km
Semi-major axis
7,374.047 km
Eccentricity
0.00202
Inclination
99.8079°
RAAN
340.047°
Arg. of periapsis
153.5711°
True anomaly
25.52351°
Mean anomaly
25.424°
Eccentric anomaly
25.47373°
Mean motion
3.42755 °/min
Orbital period
105.03 mins
BSTAR
0.000038825
Loading maneuver chart data...
Computing Atmospheric mass density...
Loading historical data...
Loading historical data...
Loading historical data...
Loading historical data...
Loading historical data...
Loading historical data...
Loading historical data...

Documentation

Showing up to 5 results
|